Weather History for K4O4 - March, 2014

Change the Weather History Date:

Sunday, March 30, 2014

  Actual Average (KDEQ) Record (KDEQ)
Temperature  
Mean Temperature 57 °F 56 °F  
Max Temperature 75 °F 70 °F 93 °F (1946)
Min Temperature 39 °F 43 °F 27 °F (2003)
Degree Days  
Heating Degree Days 8 9  
Month to date heating degree days 367  
Since 1 July heating degree days 2858  
Cooling Degree Days 0 1  
Month to date cooling degree days 2  
Year to date cooling degree days 4  
Growing Degree Days 7 (Base 50)    
Moisture  
Dew Point 37 °F    
Average Humidity 51    
Maximum Humidity 87    
Minimum Humidity 24    
Precipitation  
Precipitation 0.00 in 0.20 in 4.28 in (1945)
Month to date precipitation 4.45  
Year to date precipitation 11.45  
Snow  
Snow 0.00 in - - ()
Month to date snowfall  
Since 1 July snowfall  
Snow Depth -    
Sea Level Pressure  
Sea Level Pressure 30.16 in    
Wind  
Wind Speed 7 mph (SE)    
Max Wind Speed 17 mph    
Max Gust Speed 21 mph    
Visibility 10 miles    
Events      
T = Trace of Precipitation, MM = Missing Value Source: NWS Daily Summary

Daily Weather History Graph

Daily Weather History Graph

Search for Another Location

Airport or City:

Trip Planner

Search our weather history database for the weather conditions in past years. The results will help you decide how hot, cold, wet, or windy it might be!

Date:

Astronomy

Mar. 30, 2014 Rise Set
Actual Time 7:09 AM CDT 7:38 PM CDT
Civil Twilight 6:44 AM CDT 8:03 PM CDT
Nautical Twilight 6:14 AM CDT 8:33 PM CDT
Astronomical Twilight 5:45 AM CDT 9:03 PM CDT
Moon 6:55 AM CDT (3/30) 7:50 PM CDT (3/30)
Length of Visible Light 13h 19m
Length of Day
12h 29m
Waning Crescent, 0% of the Moon is Illuminated
Mar 30
Waning Crescent
Mar 30
New
Apr 7
First Quarter
Apr 15
Full
Apr 22
Last Quarter

Hourly Weather History & Observations

Time (CDT) Temp. Windchill Dew Point Humidity Pressure Visibility Wind Dir Wind Speed Gust Speed Precip Events Conditions
12:01 AM 46.4 °F 44.3 °F 33.8 °F 62% 30.24 in 10.0 mi North 4.6 mph - N/A   Clear
12:21 AM 46.4 °F - 33.8 °F 62% 30.24 in 10.0 mi Calm Calm - N/A   Clear
12:40 AM 48.2 °F - 33.8 °F 58% 30.24 in 10.0 mi ENE 3.5 mph - N/A   Clear
1:00 AM 44.6 °F 42.2 °F 33.8 °F 66% 30.24 in 10.0 mi East 4.6 mph - N/A   Clear
1:20 AM 42.8 °F 41.1 °F 33.8 °F 70% 30.24 in 10.0 mi East 3.5 mph - N/A   Clear
1:40 AM 42.8 °F 39.3 °F 33.8 °F 70% 30.24 in 10.0 mi East 5.8 mph - N/A   Clear
2:00 AM 42.8 °F 38.6 °F 35.6 °F 76% 30.24 in 10.0 mi East 6.9 mph - N/A   Clear
2:20 AM 44.6 °F - 35.6 °F 71% 30.24 in 10.0 mi Calm Calm - N/A   Clear
2:40 AM 44.6 °F 43.1 °F 33.8 °F 66% 30.24 in 10.0 mi East 3.5 mph - N/A   Clear
3:02 AM 42.8 °F - 33.8 °F 70% 30.23 in 10.0 mi Calm Calm - N/A   Clear
3:20 AM 42.8 °F 39.3 °F 35.6 °F 76% 30.23 in 10.0 mi East 5.8 mph - N/A   Clear
3:40 AM 41.0 °F 36.4 °F 33.8 °F 76% 30.22 in 10.0 mi East 6.9 mph - N/A   Clear
4:00 AM 39.2 °F - 33.8 °F 81% 30.23 in 10.0 mi Calm Calm - N/A   Clear
4:20 AM 39.2 °F 33.0 °F 35.6 °F 87% 30.21 in 10.0 mi East 9.2 mph - N/A   Clear
4:40 AM 42.8 °F 38.0 °F 35.6 °F 76% 30.21 in 10.0 mi East 8.1 mph - N/A   Clear
5:00 AM 42.8 °F 39.3 °F 35.6 °F 76% 30.21 in 10.0 mi East 5.8 mph - N/A   Clear
5:20 AM 42.8 °F 39.3 °F 35.6 °F 76% 30.22 in 10.0 mi East 5.8 mph - N/A   Clear
5:40 AM 41.0 °F 36.4 °F 35.6 °F 81% 30.22 in 10.0 mi East 6.9 mph - N/A   Clear
6:00 AM 41.0 °F 39.0 °F 35.6 °F 81% 30.23 in 10.0 mi East 3.5 mph - N/A   Clear
6:20 AM 39.2 °F 35.9 °F 33.8 °F 81% 30.23 in 10.0 mi East 4.6 mph - N/A   Clear
6:40 AM 39.2 °F 35.9 °F 35.6 °F 87% 30.24 in 10.0 mi East 4.6 mph - N/A   Clear
7:02 AM 39.2 °F 35.0 °F 35.6 °F 87% 30.24 in 10.0 mi East 5.8 mph - N/A   Clear
7:21 AM 39.2 °F 34.2 °F 33.8 °F 81% 30.24 in 10.0 mi East 6.9 mph - N/A   Clear
7:40 AM 41.0 °F 35.8 °F 37.4 °F 87% 30.24 in 10.0 mi East 8.1 mph - N/A   Clear
8:01 AM 42.8 °F 38.6 °F 37.4 °F 81% 30.24 in 10.0 mi East 6.9 mph - N/A   Clear
8:21 AM 44.6 °F 40.2 °F 37.4 °F 76% 30.24 in 10.0 mi East 8.1 mph - N/A   Clear
8:41 AM 46.4 °F 43.5 °F 37.4 °F 71% 30.25 in 10.0 mi East 5.8 mph - N/A   Clear
9:01 AM 48.2 °F - 39.2 °F 71% 30.25 in 10.0 mi East 4.6 mph - N/A   Clear
9:21 AM 51.8 °F - 41.0 °F 67% 30.25 in 10.0 mi ESE 5.8 mph - N/A   Clear
9:41 AM 55.4 °F - 41.0 °F 58% 30.25 in 10.0 mi ESE 6.9 mph - N/A   Clear
10:01 AM 57.2 °F - 42.8 °F 59% 30.25 in 10.0 mi ESE 5.8 mph - N/A   Clear
10:21 AM 59.0 °F - 42.8 °F 55% 30.25 in 10.0 mi ESE 9.2 mph - N/A   Clear
10:41 AM 60.8 °F - 42.8 °F 52% 30.24 in 10.0 mi SE 9.2 mph - N/A   Clear
11:01 AM 62.6 °F - 42.8 °F 48% 30.24 in 10.0 mi SSE 11.5 mph 16.1 mph N/A   Clear
11:21 AM 64.4 °F - 41.0 °F 42% 30.24 in 10.0 mi SSE 12.7 mph 18.4 mph N/A   Clear
11:41 AM 66.2 °F - 41.0 °F 40% 30.24 in 10.0 mi SSE 9.2 mph 16.1 mph N/A   Clear
12:01 PM 66.2 °F - 39.2 °F 37% 30.23 in 10.0 mi SSE 9.2 mph 16.1 mph N/A   Clear
12:21 PM 68.0 °F - 39.2 °F 35% 30.22 in 10.0 mi South 11.5 mph 16.1 mph N/A   Clear
12:41 PM 68.0 °F - 37.4 °F 33% 30.20 in 10.0 mi South 8.1 mph - N/A   Clear
1:01 PM 69.8 °F - 37.4 °F 31% 30.20 in 10.0 mi South 6.9 mph 18.4 mph N/A   Clear
1:21 PM 69.8 °F - 37.4 °F 31% 30.19 in 10.0 mi South 11.5 mph - N/A   Clear
1:41 PM 71.6 °F - 37.4 °F 29% 30.18 in 10.0 mi South 9.2 mph 17.3 mph N/A   Clear
2:01 PM 71.6 °F - 37.4 °F 29% 30.16 in 10.0 mi SSE 15.0 mph 20.7 mph N/A   Clear
2:21 PM 71.6 °F - 37.4 °F 29% 30.15 in 10.0 mi SSE 9.2 mph 15.0 mph N/A   Clear
2:41 PM 73.4 °F - 37.4 °F 27% 30.14 in 10.0 mi South 10.4 mph 18.4 mph N/A   Clear
3:02 PM 73.4 °F - 37.4 °F 27% 30.13 in 10.0 mi SE 10.4 mph 19.6 mph N/A   Clear
3:21 PM 73.4 °F - 37.4 °F 27% 30.11 in 10.0 mi South 12.7 mph 17.3 mph N/A   Clear
3:41 PM 73.4 °F - 37.4 °F 27% 30.10 in 10.0 mi SSE 15.0 mph 18.4 mph N/A   Clear
4:01 PM 73.4 °F - 37.4 °F 27% 30.09 in 10.0 mi South 17.3 mph - N/A   Clear
4:21 PM 73.4 °F - 37.4 °F 27% 30.07 in 10.0 mi SSE 12.7 mph - N/A   Clear
4:41 PM 75.2 °F - 35.6 °F 24% 30.06 in 10.0 mi SSE 12.7 mph 19.6 mph N/A   Clear
5:01 PM 75.2 °F - 35.6 °F 24% 30.06 in 10.0 mi South 10.4 mph 19.6 mph N/A   Clear
5:21 PM 75.2 °F - 35.6 °F 24% 30.05 in 10.0 mi South 10.4 mph 17.3 mph N/A   Clear
5:41 PM 75.2 °F - 35.6 °F 24% 30.04 in 10.0 mi South 10.4 mph - N/A   Clear
6:01 PM 75.2 °F - 35.6 °F 24% 30.03 in 10.0 mi SSE 13.8 mph 19.6 mph N/A   Clear
6:21 PM 73.4 °F - 35.6 °F 25% 30.04 in 10.0 mi South 11.5 mph - N/A   Clear
6:41 PM 73.4 °F - 35.6 °F 25% 30.03 in 10.0 mi SSE 12.7 mph 17.3 mph N/A   Clear
7:01 PM 71.6 °F - 35.6 °F 27% 30.03 in 10.0 mi South 12.7 mph - N/A   Clear
7:21 PM 69.8 °F - 35.6 °F 28% 30.04 in 10.0 mi South 8.1 mph - N/A   Clear
7:41 PM 66.2 °F - 35.6 °F 32% 30.04 in 10.0 mi South 8.1 mph - N/A   Clear
8:01 PM 64.4 °F - 35.6 °F 34% 30.04 in 10.0 mi SSE 8.1 mph - N/A   Clear
8:21 PM 64.4 °F - 35.6 °F 34% 30.03 in 10.0 mi SSE 8.1 mph - N/A   Clear
8:41 PM 62.6 °F - 37.4 °F 39% 30.03 in 10.0 mi SE 6.9 mph - N/A   Clear
9:01 PM 62.6 °F - 37.4 °F 39% 30.03 in 10.0 mi SSE 9.2 mph - N/A   Clear
9:21 PM 62.6 °F - 39.2 °F 42% 30.02 in 10.0 mi SSE 10.4 mph - N/A   Clear
9:41 PM 62.6 °F - 39.2 °F 42% 30.03 in 10.0 mi SSE 9.2 mph - N/A   Clear
10:01 PM 62.6 °F - 39.2 °F 42% 30.03 in 10.0 mi SSE 8.1 mph - N/A   Clear
10:21 PM 60.8 °F - 39.2 °F 45% 30.02 in 10.0 mi SE 10.4 mph - N/A   Clear
10:41 PM 60.8 °F - 39.2 °F 45% 30.02 in 10.0 mi SE 9.2 mph - N/A   Clear
11:01 PM 60.8 °F - 41.0 °F 48% 30.02 in 10.0 mi SSE 10.4 mph 16.1 mph N/A   Clear
11:21 PM 60.8 °F - 41.0 °F 48% 30.02 in 10.0 mi SSE 11.5 mph - N/A   Clear
11:41 PM 60.8 °F - 41.0 °F 48% 30.02 in 10.0 mi SSE 10.4 mph - N/A   Clear